This is the latest recevied weather packets stored in our database for station/object KB9HUO. If no packets are shown the sender has not sent any weather packets the latest 10 day(s).
| Time | Temp. | Humidity | Pressure | Rain* | Wind** | Luminosity | Snow |
|---|---|---|---|---|---|---|---|
| 1777853803 | 16.67° C | 48% | 1013.8 hPa | 0 mm | - | 8 W/m² | - |
| 1777853498 | 16.67° C | 48% | 1013.6 hPa | 0 mm | - | 10 W/m² | - |
| 1777853196 | 16.67° C | 48% | 1013.9 hPa | 0 mm | - | 11 W/m² | - |
| 1777852893 | 16.67° C | 47% | 1013.8 hPa | 0 mm | - | 13 W/m² | - |
| 1777852591 | 17.22° C | 46% | 1013.7 hPa | 0 mm | - | 17 W/m² | - |
| 1777852288 | 17.22° C | 46% | 1013.5 hPa | 0 mm | - | 18 W/m² | - |
| 1777851986 | 17.22° C | 46% | 1013.4 hPa | 0 mm | - | 20 W/m² | - |
| 1777851684 | 17.22° C | 46% | 1013.3 hPa | 0 mm | - | 22 W/m² | - |
| 1777851381 | 17.22° C | 46% | 1013.4 hPa | 0 mm | - | 23 W/m² | - |
| 1777851076 | 17.22° C | 46% | 1013.5 hPa | 0 mm | - | 24 W/m² | - |
| 1777850773 | 17.22° C | 46% | 1013.5 hPa | 0 mm | - | 25 W/m² | - |
| 1777850470 | 17.22° C | 45% | 1013.3 hPa | 0 mm | - | 26 W/m² | - |
| 1777850169 | 17.22° C | 46% | 1013.3 hPa | 0 mm | - | 28 W/m² | - |
| 1777849865 | 17.22° C | 45% | 1013.6 hPa | 0 mm | - | 29 W/m² | - |
| 1777849561 | 17.78° C | 46% | 1013.6 hPa | 0 mm | - | 30 W/m² | - |
| 1777849259 | 17.78° C | 45% | 1013.5 hPa | 0 mm | - | 33 W/m² | - |
| 1777848955 | 17.78° C | 45% | 1013.5 hPa | 0 mm | - | 33 W/m² | - |
| 1777848650 | 17.78° C | 45% | 1013.6 hPa | 0 mm | - | 34 W/m² | - |
| 1777848348 | 17.78° C | 45% | 1013.6 hPa | 0 mm | - | 36 W/m² | - |
| 1777848046 | 17.78° C | 45% | 1013.7 hPa | 0 mm | - | 40 W/m² | - |
| 1777847744 | 17.78° C | 44% | 1013.7 hPa | 0 mm | - | 41 W/m² | - |
| 1777847439 | 17.78° C | 44% | 1013.7 hPa | 0 mm | - | 56 W/m² | - |
| 1777847137 | 17.78° C | 45% | 1013.8 hPa | 0 mm | - | 46 W/m² | - |
| 1777846835 | 17.78° C | 44% | 1014 hPa | 0 mm | - | 51 W/m² | - |
| 1777846533 | 17.78° C | 43% | 1014 hPa | 0 mm | - | 56 W/m² | - |
* Rain latest hour (hover to see other rain measurements)
** Current wind speed in m/s (hover to see current wind gust speed)